Location: Boone Canyon
(38.3180°N, 119.2504°W)
Time: 18:18:19
(UTC+00:00)

Cosmos 1812 - Pass Details

Date: 18 September 2020
Orbit: 517 x 521 km, 82.5° (Epoch: 19 October)

Event Time Altitude Azimuth Distance (km) Brightness Sun altitude
Exits shadow 12:35:56 21° 234° (SW) 1,211 4.0 -13.6°
Maximum altitude 12:37:47 32° 282° (WNW) 911 3.4 -13.3°
Drops below altitude 10° 12:41:16 10° 347° (NNW) 1,760 5.4 -12.6°
Sets 12:43:35 0° 357° (N) 2,653 6.4 -12.1°
